Simultaneous Nadir Overpasses (SNOs) Predictions

Prediction of SNOs between AQUA and NOAA-19 Satellite Orbit:

Table of predicted SNOs for the next 14.0 days since TLE Epoch: 10/27/2015
Index Date (AQUA) Time (AQUA) Lat,Lon (AQUA) SZA (AQUA ) Date (NOAA-19) Time (NOAA-19) Lat,Lon (NOAA-19) SZA (NOAA-19 ) Distance(km) Time Diff (sec)
1 10/28/2015 08:51:41 -80.49,-167.98 85.18 10/28/2015 08:51:36 -80.49,-167.89 85.19 1.75 5
2 10/30/2015 13:36:01 -80.55, 120.32 84.36 10/30/2015 13:34:54 -80.56, 120.17 84.31 2.81 67
3 10/30/2015 14:25:26 80.49, -71.40 95.55 10/30/2015 14:25:57 80.50, -71.54 95.56 2.77 31
4 11/01/2015 19:09:45 80.53,-142.90 96.33 11/01/2015 19:09:13 80.53,-142.95 96.35 0.88 32
5 11/01/2015 19:59:09 -80.46, 25.42 83.78 11/01/2015 20:00:06 -80.46, 25.55 83.81 2.43 57
6 11/04/2015 00:43:27 -80.51, -46.17 83.00 11/04/2015 00:43:22 -80.51, -46.11 83.00 1.26 5
7 11/06/2015 05:27:46 -80.57,-117.88 82.23 11/06/2015 05:26:39 -80.56,-117.80 82.22 1.82 67
8 11/06/2015 06:17:11 80.52, 50.34 97.69 11/06/2015 06:17:41 80.51, 50.43 97.67 2.03 30
9 11/08/2015 11:01:29 80.56, -21.17 98.42 11/08/2015 11:00:57 80.55, -21.12 98.42 1.41 32




NCC Satellite Simultaneous Nadir Overpasses (SNOs) Prediction Service
